Home > Weather > Portsmouth > Past weeks

Flag for United Kingdom Weather for the Past 2 Weeks in Portsmouth, England, United Kingdom

Now
37 °F

Passing clouds.


Feels Like: 31 °F
Forecast: 37 / 44 °F
Wind: 9 mph from Northeast

Location: Southampton / Weather Centre

Current Time: Feb 14, 2016 at 10:42:31 AM

Latest Report: Feb 14, 2016 at 9:50 AM


Visibility: 6 mi

Pressure: 29.33 "Hg

Humidity: 87%

Dew point: 34 °F

Location of PortsmouthLocation

Historic Weather in Portsmouth — Graph

°F

Portsmouth Temperature Yesterday

Maximum temperature yesterday: 39 °F (at 7:20 AM)
Minimum temperature yesterday: 37 °F (at 5:50 AM)
Average temperature yesterday: 39 °F

High & Low Weather Summary for the Past Weeks

 TemperatureHumidityPressure
High55 °F (Jan 31, 2:20 PM)100% (Feb 11, 7:20 AM)30.42 "Hg (Feb 11, 7:20 AM)
Low23 °F (Feb 11, 7:20 AM)46% (Jan 30, 2:20 PM)28.97 "Hg (Feb 13, 9:20 AM)
Average45 °F79%29.67 "Hg
* Reported Jan 30 9:20 AM — Feb 14 9:20 AM, Portsmouth, Weather by CustomWeather, © 2016

Note: Actual official high and low records may vary slightly from our data, if they occured in-between our weather recording intervals... More about our weather records

Advertising

Portsmouth Weather History for the Previous 24 Hours

 ConditionsComfort  
Time TempWeatherWind HumidityBarometerVisibility
9:20 AM
Sun, Feb 14
37 °FPassing clouds.8 mph87%29.33 "Hg6 mi
8:50 AM37 °FPassing clouds.8 mph87%29.30 "Hg5 mi
8:20 AM36 °FPassing clouds.7 mph93%29.30 "Hg5 mi
7:20 AM36 °FScattered clouds.6 mph93%29.27 "Hg4 mi
8:20 PM
Sat, Feb 13
37 °FLight rain. Passing clouds.7 mph93%29.15 "HgN/A
7:50 PM37 °FLight rain. Passing clouds.6 mph93%29.15 "HgN/A
7:20 PM37 °FLight rain. Passing clouds.8 mph93%29.15 "HgN/A
6:50 PM39 °FLight rain. Passing clouds.7 mph87%29.15 "HgN/A
6:20 PM39 °FLight rain. Passing clouds.7 mph87%29.12 "Hg6 mi
5:50 PM39 °FLight rain. Passing clouds.6 mph87%29.12 "Hg4 mi
5:20 PM39 °FLight rain. Passing clouds.7 mph87%29.09 "Hg4 mi
4:50 PM39 °FLight rain. Partly sunny.7 mph87%29.09 "HgN/A
4:20 PM39 °FPartly sunny.7 mph87%29.06 "HgN/A
3:50 PM39 °FPartly sunny.10 mph87%29.06 "HgN/A
3:20 PM39 °FPartly sunny.10 mph87%29.03 "HgN/A
2:50 PM39 °FPartly sunny.10 mph87%29.03 "HgN/A
2:20 PM39 °FPartly sunny.12 mph87%29.00 "HgN/A
1:50 PM39 °FPartly sunny.12 mph87%29.00 "HgN/A
1:20 PM39 °FPartly sunny.13 mph87%29.00 "HgN/A
12:50 PM39 °FPartly sunny.13 mph87%28.97 "HgN/A
12:20 PM39 °FBroken clouds.14 mph87%28.97 "HgN/A
11:50 AM39 °FBroken clouds.13 mph87%28.97 "HgN/A
11:20 AM37 °FBroken clouds.9 mph93%28.97 "HgN/A
10:50 AM37 °FBroken clouds.12 mph93%28.97 "HgN/A
10:20 AM39 °FLight rain. Broken clouds.12 mph87%28.97 "HgN/A
Weather by CustomWeather, © 2016

See weather overviewHow to use our weather pages